DW4207 Weather Reports


Display with metric or nautical units.
time (UTC)temp
F
wind
direction
speed
MPH
gust
MPH
rain 1hr
in
rain 24hr
in
rain mn
in
humidity
%
barometer
mb
20260902161024 90 205 5.0 11.0 0.00 0.00 0.00 63 1017.6
20260902160004 90 204 5.0 11.0 0.00 0.00 0.00 65 1017.6
20260902155003 89 200 5.0 12.0 0.00 0.00 0.00 64 1017.6
20260902154003 89 208 4.0 10.0 0.00 0.00 0.00 65 1017.6
20260902153004 89 205 4.0 9.0 0.00 0.00 0.00 67 1017.5
20260902152024 88 193 3.0 8.0 0.00 0.00 0.00 65 1017.6
20260902151003 88 216 4.0 11.0 0.00 0.00 0.00 66 1017.6
20260902150003 87 212 4.0 9.0 0.00 0.00 0.00 67 1017.6
20260902145003 88 207 3.0 9.0 0.00 0.00 0.00 70 1017.7
20260902144024 87 211 4.0 8.0 0.00 0.00 0.00 70 1017.8
20260902143004 86 216 4.0 9.0 0.00 0.00 0.00 70 1017.7
20260902142003 85 200 3.0 8.0 0.00 0.00 0.00 70 1017.8
20260902141003 85 220 4.0 8.0 0.00 0.00 0.00 72 1017.8
20260902140003 85 211 3.0 9.0 0.00 0.00 0.00 71 1017.9
20260902135003 84 218 3.0 9.0 0.00 0.00 0.00 72 1018.0
20260902134003 83 222 3.0 8.0 0.00 0.00 0.00 73 1018.2
20260902133003 83 224 2.0 6.0 0.00 0.00 0.00 74 1018.2
20260902132003 82 220 2.0 5.0 0.00 0.00 0.00 75 1018.2
20260902131003 82 227 2.0 6.0 0.00 0.00 0.00 75 1018.2
20260902130003 81 210 3.0 5.0 0.00 0.00 0.00 76 1018.1
20260902125003 80 204 2.0 4.0 0.00 0.00 0.00 77 1018.1
20260902124024 79 202 2.0 5.0 0.00 0.00 0.00 78 1018.1
20260902123003 78 205 2.0 5.0 0.00 0.00 0.00 79 1018.2
20260902122003 78 196 1.0 4.0 0.00 0.00 0.00 80 1018.2
20260902121024 77 201 1.0 4.0 0.00 0.00 0.00 80 1018.3
20260902120024 77 202 1.0 3.0 0.00 0.00 0.00 81 1018.2
20260902115004 76 202 0.0 2.0 0.00 0.00 0.00 81 1018.2
20260902114003 76 206 0.0 2.0 0.00 0.00 0.00 81 1018.0
20260902113003 76 202 1.0 4.0 0.00 0.00 0.00 81 1017.9
20260902112003 76 206 0.0 2.0 0.00 0.00 0.00 82 1017.9
20260902111003 76 198 0.0 2.0 0.00 0.00 0.00 82 1017.9
20260902110005 76 200 0.0 2.0 0.00 0.00 0.00 82 1017.8
20260902105024 75 0 0.0 0.0 0.00 0.00 0.00 82 1017.7
20260902104024 76 0 0.0 0.0 0.00 0.00 0.00 82 1017.6
20260902103003 76 0 0.0 0.0 0.00 0.00 0.00 82 1017.5
20260902102003 75 222 0.0 2.0 0.00 0.00 0.00 82 1017.4
20260902101003 75 0 0.0 0.0 0.00 0.00 0.00 82 1017.4
20260902100003 76 203 0.0 2.0 0.00 0.00 0.00 82 1017.4
20260902095003 76 203 0.0 2.0 0.00 0.00 0.00 81 1017.3
20260902094003 76 203 0.0 2.0 0.00 0.00 0.00 81 1017.3
20260902093003 76 193 0.0 3.0 0.00 0.00 0.00 80 1017.2
20260902092024 76 0 0.0 0.0 0.00 0.00 0.00 80 1017.2
20260902091003 76 0 0.0 2.0 0.00 0.00 0.00 80 1017.2
20260902090024 77 187 0.0 2.0 0.00 0.00 0.00 80 1017.1
20260902085003 77 174 0.0 2.0 0.00 0.00 0.00 80 1017.1
20260902084003 76 203 0.0 3.0 0.00 0.00 0.00 81 1017.0
20260902083003 76 193 0.0 2.0 0.00 0.00 0.00 82 1017.1
20260902082024 76 193 0.0 2.0 0.00 0.00 0.00 82 1017.0
20260902081003 77 188 0.0 2.0 0.00 0.00 0.00 80 1017.0
20260902080003 77 0 0.0 0.0 0.00 0.00 0.00 80 1016.8
20260902075024 77 162 1.0 2.0 0.00 0.00 0.00 80 1016.8
20260902074003 77 160 1.0 1.0 0.00 0.00 0.00 81 1016.8
20260902073024 77 176 1.0 2.0 0.00 0.00 0.00 81 1016.8
20260902072003 77 166 0.0 3.0 0.00 0.00 0.00 81 1016.8
20260902071003 77 0 0.0 0.0 0.00 0.00 0.00 82 1016.8
20260902070004 78 0 0.0 0.0 0.00 0.00 0.00 80 1016.9
20260902065003 78 158 0.0 2.0 0.00 0.00 0.00 80 1016.9
20260902064003 78 185 0.0 2.0 0.00 0.00 0.00 80 1016.9
20260902063003 78 178 0.0 1.0 0.00 0.00 0.00 80 1016.9
20260902062003 78 181 0.0 2.0 0.00 0.00 0.00 80 1016.9
20260902061024 77 171 0.0 2.0 0.00 0.00 0.00 82 1017.0
20260902060003 77 0 0.0 0.0 0.00 0.00 0.00 84 1017.0
20260902055003 76 0 0.0 0.0 0.00 0.00 0.00 85 1017.0
20260902054003 76 0 0.0 0.0 0.00 0.00 0.00 85 1017.1
20260902053003 77 0 0.0 0.0 0.00 0.00 0.00 85 1017.0
20260902052024 77 0 0.0 0.0 0.00 0.00 0.00 85 1016.9
20260902051003 78 0 0.0 0.0 0.00 0.00 0.00 84 1016.9
20260902050005 78 0 0.0 2.0 0.00 0.00 0.00 81 1016.9
20260902045003 79 171 0.0 2.0 0.00 0.00 0.00 80 1016.9
20260902044003 79 171 0.0 2.0 0.00 0.00 0.00 81 1016.9
20260902043003 78 170 0.0 2.0 0.00 0.00 0.00 82 1016.9
20260902042003 78 165 0.0 1.0 0.00 0.00 0.00 83 1016.9
20260902041003 78 165 0.0 2.0 0.00 0.00 0.00 85 1016.8
20260902040004 77 0 0.0 0.0 0.00 0.00 0.00 86 1016.9
20260902035003 77 0 0.0 0.0 0.00 0.00 0.00 86 1016.9
20260902034003 77 0 0.0 0.0 0.00 0.00 0.00 86 1016.9
20260902033003 78 0 0.0 0.0 0.00 0.00 0.00 87 1016.9
20260902032024 77 165 0.0 1.0 0.00 0.00 0.00 87 1016.9
20260902031003 77 0 0.0 0.0 0.00 0.00 0.00 87 1016.9
20260902030003 78 0 0.0 0.0 0.00 0.00 0.00 86 1016.9
20260902025003 78 0 0.0 0.0 0.00 0.00 0.00 86 1017.0
20260902024003 77 165 0.0 2.0 0.00 0.00 0.00 87 1016.9
20260902023024 77 0 0.0 0.0 0.00 0.00 0.00 87 1016.9
20260902022024 77 0 0.0 0.0 0.00 0.00 0.00 86 1016.9
20260902021003 78 0 0.0 0.0 0.00 0.00 0.00 86 1016.7
20260902020003 78 0 0.0 0.0 0.00 0.00 0.00 86 1016.6
20260902015024 79 0 0.0 0.0 0.00 0.00 0.00 85 1016.6
20260902014003 79 0 0.0 0.0 0.00 0.00 0.00 85 1016.5
20260902013003 79 0 0.0 0.0 0.00 0.00 0.00 85 1016.4
20260902012003 79 0 0.0 0.0 0.00 0.00 0.00 84 1016.3
20260902011003 80 0 0.0 0.0 0.00 0.00 0.00 83 1016.2
20260902010003 80 0 0.0 0.0 0.00 0.00 0.00 82 1016.1
20260902005003 82 0 0.0 0.0 0.00 0.00 0.00 81 1016.1
20260902004003 83 0 0.0 0.0 0.00 0.00 0.00 78 1016.1
20260902003003 84 165 0.0 2.0 0.00 0.00 0.00 75 1016.1
20260902002003 85 162 0.0 2.0 0.00 0.00 0.00 74 1016.1
20260902001003 85 210 0.0 2.0 0.00 0.00 0.00 73 1016.1
20260902000003 86 211 0.0 2.0 0.00 0.00 0.00 70 1016.2
20260901235003 87 219 0.0 2.0 0.00 0.00 0.00 69 1016.1
20260901234003 88 224 0.0 2.0 0.00 0.00 0.00 67 1016.2
20260901233024 88 222 1.0 4.0 0.00 0.00 0.00 66 1016.2
20260901232003 89 227 2.0 4.0 0.00 0.00 0.00 64 1016.2
20260901231003 90 217 2.0 5.0 0.00 0.00 0.00 62 1016.2
20260901230004 90 212 2.0 6.0 0.00 0.00 0.00 62 1016.1
20260901225003 91 219 2.0 6.0 0.00 0.00 0.00 61 1016.2
20260901224024 91 210 2.0 6.0 0.00 0.00 0.00 60 1016.1
20260901223003 91 223 2.0 5.0 0.00 0.00 0.00 62 1016.1
20260901222003 91 226 3.0 9.0 0.00 0.00 0.00 61 1016.0
20260901221003 92 211 3.0 7.0 0.00 0.00 0.00 60 1016.1
20260901220024 92 243 3.0 6.0 0.00 0.00 0.00 59 1016.1
20260901215024 92 220 4.0 8.0 0.00 0.00 0.00 58 1016.0
20260901214024 92 214 4.0 8.0 0.00 0.00 0.00 58 1016.0
20260901213003 92 214 3.0 8.0 0.00 0.00 0.00 58 1016.1
20260901212003 93 221 3.0 9.0 0.00 0.00 0.00 59 1016.2
20260901211003 93 229 3.0 7.0 0.00 0.00 0.00 61 1016.2
20260901210003 93 217 3.0 9.0 0.00 0.00 0.00 61 1016.2
20260901205003 93 230 3.0 8.0 0.00 0.00 0.00 59 1016.2
20260901204003 93 247 3.0 8.0 0.00 0.00 0.00 59 1016.2
20260901203003 93 243 3.0 9.0 0.00 0.00 0.00 58 1016.2
20260901202024 93 213 4.0 9.0 0.00 0.00 0.00 61 1016.2
20260901201003 93 216 4.0 9.0 0.00 0.00 0.00 58 1016.2
20260901200003 92 212 5.0 11.0 0.00 0.00 0.00 59 1016.2
20260901195003 93 223 4.0 11.0 0.00 0.00 0.00 60 1016.2
20260901194003 92 219 4.0 11.0 0.00 0.00 0.00 59 1016.3
20260901193024 93 229 5.0 9.0 0.00 0.00 0.00 61 1016.4
20260901192003 92 213 6.0 12.0 0.00 0.00 0.00 59 1016.5
20260901191003 92 224 5.0 15.0 0.00 0.00 0.00 57 1016.6
20260901190003 92 218 5.0 16.0 0.00 0.00 0.00 59 1016.7
20260901185003 93 227 3.0 8.0 0.00 0.00 0.00 60 1016.7
20260901184003 92 217 4.0 9.0 0.00 0.00 0.00 57 1016.7
20260901183003 92 208 5.0 12.0 0.00 0.00 0.00 60 1016.7
20260901182003 92 229 4.0 11.0 0.00 0.00 0.00 58 1016.9
20260901181003 92 224 5.0 12.0 0.00 0.00 0.00 57 1016.9
20260901180003 91 198 4.0 9.0 0.00 0.00 0.00 58 1016.9
20260901175003 91 202 6.0 11.0 0.00 0.00 0.00 58 1017.0
20260901174024 91 212 4.0 11.0 0.00 0.00 0.00 58 1017.0
20260901173003 91 222 4.0 9.0 0.00 0.00 0.00 60 1017.1
20260901172003 91 198 4.0 10.0 0.00 0.00 0.00 60 1017.2
20260901171003 90 210 4.0 10.0 0.00 0.00 0.00 61 1017.2
20260901170003 90 210 3.0 8.0 0.00 0.00 0.00 59 1017.4
20260901165004 90 196 3.0 10.0 0.00 0.00 0.00 61 1017.5
20260901164003 89 211 4.0 10.0 0.00 0.00 0.00 61 1017.6
20260901163003 90 221 4.0 9.0 0.00 0.00 0.00 63 1017.7
20260901162003 89 181 3.0 8.0 0.00 0.00 0.00 63 1017.7